When you browse on this site, cookies collect data to enhance your experience and personalize the content and advertising you see.
Visit our Privacy Policy to learn more. By continuing to use the site, you agree to this use of cookies and data.
  • In United Kingdom
  • List of Countries
  • For 7 days
  • Water Temperature
  • Satellite Maps
  • Weather Map
  • Weather Widgets
  • user-avatar
    Login

    Hourly Weather Dinagepoor

    Today, 26 May, Sunday

    Time Temperature Precipitation Wind Pressure Humidity
    00:00 +30°C° 0 mm 2 mps 749 mmHg 86%
    01:00 +30°C° 0 mm 2 mps 749 mmHg 87%
    02:00 +30°C° 0 mm 2 mps 748 mmHg 87%
    03:00 +29°C° 0 mm 2 mps 748 mmHg 88%
    04:00 +29°C° 0 mm 2 mps 748 mmHg 89%
    05:00 +29°C° 0 mm 2 mps 748 mmHg 89%
    06:00 +29°C° 0 mm 2 mps 749 mmHg 90%
    07:00 +30°C° 0 mm 3 mps 749 mmHg 87%
    08:00 +31°C° 0 mm 3 mps 749 mmHg 85%
    09:00 +33°C° 0 mm 3 mps 750 mmHg 82%
    10:00 +34°C° 0.1 mm 3 mps 750 mmHg 77%
    11:00 +35°C° 0.1 mm 3 mps 750 mmHg 72%
    12:00 +36°C° 0.1 mm 3 mps 750 mmHg 67%
    13:00 +37°C° 0 mm 3 mps 749 mmHg 61%
    14:00 +38°C° 0 mm 2 mps 748 mmHg 56%
    15:00 +39°C° 0 mm 2 mps 748 mmHg 50%
    16:00 +39°C° 0 mm 2 mps 747 mmHg 48%
    17:00 +39°C° 0 mm 2 mps 747 mmHg 46%
    18:00 +39°C° 0 mm 2 mps 747 mmHg 43%
    19:00 +37°C° 0 mm 2 mps 747 mmHg 53%
    20:00 +36°C° 0 mm 3 mps 748 mmHg 63%
    21:00 +34°C° 0 mm 4 mps 748 mmHg 73%
    22:00 +33°C° 0 mm 4 mps 748 mmHg 76%
    23:00 +33°C° 0 mm 4 mps 748 mmHg 78%

    Tomorrow, 27 May, Monday

    Time Temperature Precipitation Wind Pressure Humidity
    00:00 +32°C° 0 mm 4 mps 749 mmHg 81%
    01:00 +32°C° 0 mm 4 mps 748 mmHg 82%
    02:00 +32°C° 0 mm 4 mps 748 mmHg 83%
    03:00 +30°C° 0 mm 4 mps 748 mmHg 85%
    04:00 +30°C° 0.1 mm 4 mps 748 mmHg 86%
    05:00 +30°C° 0.1 mm 4 mps 748 mmHg 88%
    06:00 +30°C° 0.1 mm 3 mps 749 mmHg 89%
    07:00 +32°C° 0.1 mm 4 mps 749 mmHg 86%
    08:00 +32°C° 0.1 mm 4 mps 750 mmHg 83%
    09:00 +33°C° 0.1 mm 4 mps 750 mmHg 80%
    10:00 +34°C° 0.1 mm 4 mps 750 mmHg 77%
    11:00 +35°C° 0.1 mm 4 mps 750 mmHg 74%
    12:00 +35°C° 0.1 mm 4 mps 750 mmHg 71%
    13:00 +37°C° 0 mm 4 mps 749 mmHg 64%
    14:00 +38°C° 0 mm 3 mps 748 mmHg 57%
    15:00 +40°C° 0 mm 3 mps 747 mmHg 50%
    16:00 +40°C° 0 mm 3 mps 747 mmHg 51%
    17:00 +39°C° 0 mm 3 mps 747 mmHg 52%
    18:00 +39°C° 0 mm 3 mps 746 mmHg 52%
    19:00 +37°C° 0 mm 4 mps 747 mmHg 59%
    20:00 +36°C° 0 mm 4 mps 748 mmHg 66%
    21:00 +34°C° 0 mm 5 mps 748 mmHg 73%
    22:00 +34°C° 0 mm 5 mps 749 mmHg 76%
    23:00 +33°C° 0 mm 6 mps 749 mmHg 78%

    Day after tomorrow, 28 May, Tuesday

    Time Temperature Precipitation Wind Pressure Humidity
    00:00 +33°C° 0 mm 6 mps 749 mmHg 80%
    01:00 +32°C° 0.1 mm 6 mps 749 mmHg 81%
    02:00 +32°C° 0.1 mm 5 mps 749 mmHg 83%
    03:00 +30°C° 0.1 mm 5 mps 749 mmHg 84%
    04:00 +30°C° 0.6 mm 5 mps 749 mmHg 86%
    05:00 +30°C° 0.6 mm 4 mps 749 mmHg 87%
    06:00 +30°C° 0.6 mm 4 mps 749 mmHg 89%
    07:00 +32°C° 0.3 mm 5 mps 750 mmHg 85%
    08:00 +33°C° 0.3 mm 5 mps 750 mmHg 81%
    09:00 +34°C° 0.3 mm 5 mps 751 mmHg 77%
    10:00 +34°C° 0 mm 5 mps 750 mmHg 75%
    11:00 +35°C° 0 mm 5 mps 750 mmHg 73%
    12:00 +36°C° 0 mm 4 mps 750 mmHg 71%
    13:00 +37°C° 0 mm 4 mps 749 mmHg 66%
    14:00 +38°C° 0 mm 4 mps 748 mmHg 60%
    15:00 +39°C° 0 mm 3 mps 747 mmHg 55%
    16:00 +39°C° 0 mm 3 mps 747 mmHg 56%
    17:00 +39°C° 0 mm 3 mps 747 mmHg 57%
    18:00 +38°C° 0 mm 3 mps 746 mmHg 59%
    19:00 +37°C° 0 mm 4 mps 747 mmHg 63%
    20:00 +36°C° 0 mm 5 mps 747 mmHg 68%
    21:00 +35°C° 0 mm 5 mps 748 mmHg 73%
    22:00 +34°C° 0.3 mm 6 mps 748 mmHg 74%
    23:00 +34°C° 0.3 mm 6 mps 749 mmHg 75%

    29 May, Wednesday

    Time Temperature Precipitation Wind Pressure Humidity
    00:00 +33°C° 0.3 mm 6 mps 749 mmHg 76%
    01:00 +33°C° 0 mm 5 mps 749 mmHg 78%
    02:00 +32°C° 0 mm 4 mps 748 mmHg 81%
    03:00 +31°C° 0 mm 3 mps 748 mmHg 83%
    04:00 +31°C° 0.6 mm 3 mps 748 mmHg 85%
    05:00 +30°C° 0.6 mm 4 mps 748 mmHg 86%
    06:00 +30°C° 0.6 mm 4 mps 749 mmHg 88%
    07:00 +32°C° 0.4 mm 4 mps 749 mmHg 84%
    08:00 +33°C° 0.4 mm 4 mps 750 mmHg 80%
    09:00 +34°C° 0.4 mm 5 mps 750 mmHg 76%
    10:00 +35°C° 0 mm 5 mps 750 mmHg 71%
    11:00 +36°C° 0 mm 5 mps 750 mmHg 67%
    12:00 +37°C° 0 mm 5 mps 749 mmHg 63%
    13:00 +38°C° 0 mm 4 mps 749 mmHg 58%
    14:00 +40°C° 0 mm 4 mps 748 mmHg 53%
    15:00 +40°C° 0 mm 3 mps 747 mmHg 48%
    16:00 +40°C° 0 mm 3 mps 746 mmHg 48%
    17:00 +40°C° 0 mm 3 mps 746 mmHg 47%
    18:00 +40°C° 0 mm 3 mps 746 mmHg 47%
    19:00 +38°C° 0 mm 4 mps 746 mmHg 56%
    20:00 +36°C° 0 mm 5 mps 747 mmHg 64%
    21:00 +34°C° 0 mm 7 mps 748 mmHg 73%
    22:00 +33°C° 2.4 mm 6 mps 748 mmHg 76%
    23:00 +32°C° 2.4 mm 6 mps 748 mmHg 80%

    30 May, Thursday

    Time Temperature Precipitation Wind Pressure Humidity
    00:00 +30°C° 2.4 mm 6 mps 748 mmHg 84%
    01:00 +30°C° 1 mm 5 mps 748 mmHg 85%
    02:00 +30°C° 1 mm 5 mps 748 mmHg 85%
    03:00 +30°C° 1 mm 4 mps 748 mmHg 86%
    04:00 +30°C° 0.5 mm 4 mps 748 mmHg 86%
    05:00 +32°C° 0.5 mm 4 mps 748 mmHg 86%
    06:00 +32°C° 0.5 mm 4 mps 748 mmHg 85%
    07:00 +33°C° 0 mm 4 mps 749 mmHg 81%
    08:00 +34°C° 0 mm 5 mps 749 mmHg 77%
    09:00 +35°C° 0 mm 6 mps 750 mmHg 72%
    10:00 +36°C° 0 mm 5 mps 750 mmHg 67%
    11:00 +37°C° 0 mm 5 mps 749 mmHg 63%
    12:00 +38°C° 0 mm 4 mps 749 mmHg 58%
    13:00 +38°C° 0 mm 4 mps 748 mmHg 56%
    14:00 +39°C° 0 mm 3 mps 747 mmHg 54%
    15:00 +39°C° 0 mm 3 mps 747 mmHg 51%
    16:00 +39°C° 0 mm 3 mps 746 mmHg 53%
    17:00 +40°C° 0 mm 4 mps 746 mmHg 54%
    18:00 +40°C° 0 mm 4 mps 746 mmHg 55%
    19:00 +37°C° 0 mm 5 mps 746 mmHg 61%
    20:00 +36°C° 0 mm 5 mps 747 mmHg 66%
    21:00 +34°C° 0 mm 6 mps 748 mmHg 71%
    22:00 +33°C° 1.2 mm 5 mps 748 mmHg 75%
    23:00 +32°C° 1.2 mm 5 mps 748 mmHg 80%

    31 May, Friday

    Time Temperature Precipitation Wind Pressure Humidity
    00:00 +30°C° 1.2 mm 4 mps 749 mmHg 84%
    01:00 +30°C° 1.9 mm 4 mps 748 mmHg 85%
    02:00 +30°C° 1.9 mm 4 mps 748 mmHg 87%
    03:00 +30°C° 1.9 mm 4 mps 748 mmHg 88%
    04:00 +30°C° 0.8 mm 4 mps 748 mmHg 87%
    05:00 +30°C° 0.8 mm 4 mps 748 mmHg 86%
    06:00 +30°C° 0.8 mm 4 mps 749 mmHg 85%
    07:00 +33°C° 1.3 mm 4 mps 749 mmHg 80%
    08:00 +34°C° 1.3 mm 4 mps 750 mmHg 75%
    09:00 +35°C° 1.3 mm 4 mps 750 mmHg 70%
    10:00 +36°C° 0.3 mm 4 mps 750 mmHg 67%
    11:00 +36°C° 0.3 mm 4 mps 750 mmHg 64%
    12:00 +37°C° 0.3 mm 4 mps 750 mmHg 62%
    13:00 +37°C° 0 mm 4 mps 749 mmHg 60%
    14:00 +38°C° 0 mm 4 mps 748 mmHg 58%
    15:00 +38°C° 0 mm 4 mps 747 mmHg 56%
    16:00 +38°C° 0 mm 4 mps 746 mmHg 58%
    17:00 +38°C° 0 mm 4 mps 746 mmHg 59%
    18:00 +37°C° 0 mm 4 mps 746 mmHg 60%
    19:00 +36°C° 0.4 mm 5 mps 746 mmHg 65%
    20:00 +35°C° 0.4 mm 5 mps 747 mmHg 69%
    21:00 +34°C° 0.4 mm 6 mps 747 mmHg 73%
    22:00 +33°C° 0.7 mm 5 mps 748 mmHg 76%
    23:00 +32°C° 0.7 mm 4 mps 748 mmHg 80%
    Show more